RH
10 9 8 8 8 8 8 7 11 14 13 11 9 8 8 7 7 7 7 7 7 7 7 7 7 7 7 7 7 7 7 8 8 8 8 8 8 8 8 8 8 8 8 7 7 7 9 9 10 11 12 12 12 11 11 10 10 10 10 10 12 15 18 23 24 23 22 20 17 15 13 11 11 10 10 10 10 10 10 10 10 11 11 11 11 11 11 11 11 11 11 11 10 10 10 10 10 10 10 10 10 10 10
9 8 8 8 8 8 8 8 10 15 19 13 10 9 8 8 8 7 7 7 7 7 7 7 7 8 8 8 8 8 8 8 8 8 8 8 8 8 8 8 8 8 8 8 8 8 8 9 10 10 11 11 11 11 11 11 10 10 10 10 11 13 17 22 23 22 22 20 17 14 11 11 11 10 10 10 10 10 10 10 10 10 10 10 11 11 11 11 11 11 11 11 11 10 10 10 10 10 10 10 10 10 10
9 9 9 9 9 9 8 8 9 11 14 12 11 10 9 9 8 8 8 8 8 8 8 8 8 8 8 8 8 8 8 8 8 9 9 9 9 9 8 8 8 9 9 9 9 8 8 9 9 10 11 11 11 11 11 11 11 11 11 11 11 12 14 17 19 20 19 19 18 15 12 11 11 11 10 10 10 10 10 10 10 10 10 10 10 11 11 11 11 11 11 11 11 11 11 11 11 11 11 11 11 11 11
9 9 10 10 10 10 9 9 9 9 10 11 11 10 10 9 9 8 8 8 8 8 8 8 8 8 8 8 9 9 9 9 9 9 9 9 9 9 9 9 9 9 9 10 10 9 9 9 10 10 10 11 11 11 11 11 11 11 12 11 11 12 13 14 15 16 17 17 16 15 12 12 11 11 11 10 10 10 10 10 10 10 10 10 10 10 10 10 11 11 11 11 11 11 11 11 11 11 11 11 11 11 11
9 9 10 10 10 10 9 9 8 8 9 9 9 9 9 9 9 8 8 8 8 8 8 8 8 8 8 8 9 9 9 9 9 9 9 9 9 9 9 9 9 10 10 10 10 10 10 10 10 10 10 11 11 11 11 11 11 11 12 11 11 12 13 13 13 14 14 15 15 14 12 12 11 11 11 11 10 10 10 10 10 10 10 10 10 10 10 10 10 10 11 11 11 11 11 11 11 12 12 12 12 12 12
9 10 10 10 10 10 9 9 9 8 8 8 8 8 8 8 8 8 8 8 8 8 8 8 8 8 8 8 8 9 9 9 9 9 9 9 9 9 9 9 9 10 10 10 10 10 11 11 11 11 10 11 11 11 11 11 11 11 11 11 11 11 12 13 13 13 13 13 13 13 12 12 11 11 11 11 10 10 10 10 10 10 10 10 10 10 10 10 10 10 10 10 11 11 11 11 11 12 12 12 12 12 12
9 10 10 10 10 11 10 10 10 9 9 9 9 8 8 8 9 9 9 9 8 8 8 8 8 8 8 8 8 9 9 9 9 9 9 9 9 9 9 9 10 10 10 10 10 10 11 11 11 11 11 11 11 11 11 11 11 11 11 11 11 11 11 12 12 12 12 13 13 12 12 12 11 11 11 11 10 10 10 10 10 10 10 10 11 11 11 11 11 11 11 11 11 11 11 11 11 11 12 12 12 12 13
10 10 11 11 11 11 11 11 11 11 10 10 10 9 9 9 9 9 9 9 9 9 9 9 9 9 9 9 9 9 9 9 9 9 9 9 9 9 9 10 10 10 10 10 11 11 11 11 11 11 11 11 11 11 11 11 11 11 11 11 11 11 11 11 11 12 12 12 12 12 12 12 12 11 11 11 11 11 10 10 10 10 10 11 10 11 11 11 11 11 11 11 11 11 11 11 11 11 12 12 12 12 12
10 11 11 12 12 12 12 12 12 12 12 12 12 11 11 11 10 10 10 10 10 9 9 9 9 9 9 9 9 9 9 9 9 9 9 9 9 9 10 10 10 10 10 11 11 11 11 11 11 11 11 11 11 11 11 11 11 10 11 10 10 10 10 11 11 11 11 12 12 12 12 12 12 12 12 11 11 11 11 11 11 10 10 11 11 11 11 11 11 11 11 11 12 12 12 12 12 12 12 12 12 12 12
11 11 11 12 12 12 13 13 13 13 13 13 13 13 13 13 13 12 12 12 11 11 11 10 10 10 10 10 10 10 10 10 10 10 10 10 10 10 10 10 10 11 11 11 11 11 12 12 12 12 11 11 11 11 11 11 11 11 11 11 10 10 10 10 11 11 11 11 11 12 12 12 12 12 12 12 11 11 11 11 11 11 11 11 11 11 11 11 11 11 11 11 11 12 12 12 12 12 12 12 12 12 12
12 12 12 12 12 13 13 13 13 13 14 14 14 15 15 15 15 15 15 14 14 13 13 12 12 12 11 11 11 11 10 11 11 11 10 10 10 10 11 11 11 11 11 12 12 12 12 12 12 12 12 12 12 12 11 11 11 11 11 11 11 11 11 11 11 11 11 11 11 11 12 13 13 13 13 12 12 12 12 12 12 12 12 12 12 11 12 11 11 11 11 11 11 11 11 12 12 12 12 12 12 12 12
12 13 14 14 14 14 13 13 13 13 13 14 14 15 15 16 16 16 16 16 16 15 15 15 14 14 13 13 12 12 12 12 12 12 12 12 11 11 12 12 12 12 12 12 12 12 13 13 13 13 13 13 13 12 12 12 12 12 12 12 12 12 12 12 12 12 12 12 12 12 12 12 13 13 13 13 13 12 12 12 12 12 12 12 12 12 12 12 12 11 11 11 11 11 11 11 11 12 12 12 12 12 12
13 14 16 16 16 16 15 14 14 13 13 13 14 14 14 15 15 16 16 16 16 16 16 16 16 16 15 15 15 15 14 14 14 14 14 14 13 13 13 13 13 13 13 13 13 14 14 14 14 14 14 14 14 14 14 14 14 14 13 13 13 13 13 13 13 13 13 13 13 13 13 13 13 13 13 13 13 13 13 13 13 13 12 12 13 13 13 13 12 12 12 12 11 11 11 11 11 11 12 12 12 12 12
14 16 18 19 18 17 16 16 15 14 14 14 14 14 14 14 15 15 16 16 16 17 17 17 17 17 17 16 16 16 16 16 16 16 15 15 15 15 15 15 14 14 14 14 15 15 15 15 16 16 16 16 16 16 15 15 15 15 15 15 15 14 14 14 14 14 14 14 14 14 14 14 14 14 14 14 14 14 13 13 13 13 13 13 13 13 13 13 13 13 13 13 12 12 12 12 12 12 11 11 12 12 12
15 17 19 20 20 19 17 17 16 16 16 16 15 15 15 15 15 15 16 16 16 17 17 17 17 17 17 17 17 17 17 17 16 16 16 16 16 16 16 16 16 16 16 16 16 16 16 17 17 17 17 17 17 17 17 17 16 16 16 16 15 15 15 15 15 15 15 14 14 14 14 14 14 14 14 14 14 14 14 14 14 14 13 13 13 13 13 13 13 13 13 13 13 13 13 13 13 12 12 12 12 12 12
18 19 20 21 20 19 18 18 18 18 18 18 17 17 16 16 16 16 16 17 17 17 18 18 18 18 18 18 18 18 18 18 17 17 17 17 17 17 17 17 17 17 17 17 17 17 17 17 17 17 17 17 17 17 17 17 17 17 16 16 16 16 15 15 15 15 15 15 15 15 14 14 14 14 14 14 14 14 14 14 14 14 14 14 14 14 14 14 14 14 14 14 14 14 14 14 14 14 13 13 13 12 12
20 20 21 21 20 20 19 20 20 21 21 20 19 18 18 18 18 18 18 18 18 18 19 19 19 19 19 19 19 19 19 19 19 19 18 18 18 18 18 18 18 17 17 17 17 17 17 17 17 17 17 17 17 17 17 17 17 17 17 16 16 16 16 15 15 15 15 15 15 14 14 14 14 14 14 14 14 14 14 14 14 14 14 14 14 14 14 14 14 14 14 14 14 14 14 14 14 14 14 14 14 14 13
21 21 21 21 20 20 21 22 23 23 23 22 21 20 19 19 19 19 19 19 19 19 20 19 20 19 19 19 19 19 19 20 20 20 20 20 20 19 19 19 19 19 19 18 18 18 18 18 18 17 17 18 18 18 18 18 18 18 18 17 17 17 16 16 16 16 15 15 15 15 14 14 14 14 14 14 13 13 13 13 13 13 14 13 13 14 14 14 14 14 14 14 14 14 14 14 14 14 15 14 14 15 14
21 21 21 21 21 21 23 24 24 25 24 24 23 22 21 20 20 20 20 20 20 20 20 20 20 20 20 20 20 20 20 20 20 21 21 21 20 20 20 20 20 20 20 20 19 19 19 19 18 18 18 18 18 19 19 19 19 19 19 19 18 18 18 18 17 17 17 16 16 16 15 15 15 15 14 14 14 14 14 14 14 13 13 13 13 14 14 14 14 14 14 14 14 14 14 14 14 14 14 14 14 15 15
21 21 21 22 22 23 25 25 26 26 26 25 24 23 22 21 21 21 21 21 21 21 21 21 21 21 21 20 20 20 20 20 20 21 21 21 21 21 21 21 21 20 21 20 20 20 20 20 20 19 19 19 19 20 20 20 20 20 20 20 20 19 19 19 19 19 18 18 18 17 17 17 16 16 16 16 15 15 15 15 15 14 14 14 14 14 14 14 14 14 14 15 15 15 15 15 15 15 15 15 15 15 15
23 22 22 23 24 25 26 27 27 27 26 26 25 24 23 23 22 22 21 21 21 21 22 22 22 22 22 22 21 21 21 21 21 21 21 21 21 21 21 21 21 21 21 21 21 21 21 21 21 20 20 20 20 20 20 20 20 20 20 20 20 20 20 20 20 20 20 19 19 19 19 18 18 18 18 18 18 17 17 17 16 16 16 15 15 15 15 14 14 14 14 15 15 16 16 16 16 16 16 16 15 15 15
25 25 25 25 26 27 27 28 28 27 27 27 26 25 25 24 23 22 22 22 22 22 22 22 23 23 23 23 23 23 23 23 22 22 22 22 22 22 22 22 21 21 21 22 21 22 22 21 21 21 21 21 21 21 21 21 20 20 20 20 20 20 20 20 20 20 20 20 20 20 20 20 19 19 19 19 19 19 19 19 18 18 18 17 17 17 16 16 16 15 15 15 15 16 16 17 18 18 19 18 18 17 17
27 27 27 27 27 28 29 29 29 28 28 28 27 26 26 25 24 23 23 23 23 23 23 23 23 23 24 24 24 24 24 24 24 24 24 23 23 23 23 23 23 23 23 23 23 23 23 23 23 23 22 22 22 22 21 21 21 20 20 20 20 20 20 20 20 20 20 20 20 20 20 20 20 20 20 20 20 20 20 20 20 20 19 19 19 18 18 18 17 17 17 16 16 16 16 17 17 19 22 22 22 21 20
29 29 29 29 29 30 31 31 30 29 29 29 29 28 28 27 26 25 25 24 24 24 24 24 24 24 25 25 25 25 25 25 25 25 25 25 25 25 25 24 24 24 24 24 25 24 25 24 24 24 24 23 23 23 22 22 21 21 21 20 20 20 20 20 19 19 20 20 20 20 20 20 20 20 20 20 20 20 21 21 21 22 22 22 21 21 21 20 19 19 19 18 18 17 17 17 17 19 21 22 24 25 24
31 31 31 31 31 32 32 31 31 31 30 30 30 30 29 29 28 27 27 26 26 26 26 25 25 25 25 25 26 26 26 26 26 26 27 26 26 26 26 26 26 26 26 25 25 25 25 25 25 25 25 25 24 24 23 23 22 22 21 21 20 20 20 19 19 19 19 19 19 20 20 20 20 20 20 20 21 21 21 21 22 23 25 26 26 26 26 25 25 24 23 22 21 20 20 20 20 20 20 21 22 24 26
32 32 32 32 32 32 32 32 32 32 31 32 31 31 30 30 30 29 29 28 28 27 27 27 27 27 27 27 27 27 27 27 28 28 28 28 28 28 27 27 27 27 27 26 26 26 26 26 26 26 26 25 25 25 24 24 23 23 22 22 21 21 20 20 20 20 19 19 19 19 20 20 20 20 20 20 21 22 22 23 23 25 27 28 29 30 30 30 30 29 28 28 27 25 24 23 23 23 23 23 25 27 29
31 31 31 31 32 32 32 32 32 32 32 32 32 32 31 31 31 31 31 30 30 30 29 29 29 29 29 29 29 29 29 29 29 29 29 29 29 29 28 28 28 28 27 27 27 27 26 26 26 26 26 26 25 25 24 24 23 23 22 22 22 21 21 20 20 20 20 20 20 20 20 20 20 20 20 21 21 22 23 23 25 27 29 31 32 32 32 32 32 32 32 32 31 31 30 29 27 26 25 26 27 28 29
31 30 31 31 32 32 33 33 33 33 33 33 33 33 32 32 32 32 32 32 32 32 31 31 31 31 31 31 31 31 31 31 30 30 30 30 29 29 29 29 29 28 28 28 28 27 27 27 27 26 26 26 25 25 24 24 23 22 22 22 21 21 21 20 20 20 20 20 20 20 20 20 20 20 20 21 22 23 23 24 26 29 31 33 33 33 33 33 33 33 33 33 33 33 33 32 32 31 30 29 28 28 29
31 32 32 33 33 33 33 33 33 33 33 34 33 33 33 33 33 34 34 34 34 34 34 33 33 33 33 33 33 33 33 32 31 31 31 30 30 30 30 30 29 29 29 29 29 28 28 28 28 27 27 27 26 26 25 24 23 23 22 21 21 21 20 20 20 20 20 20 20 20 20 20 20 20 21 21 22 23 23 24 27 29 31 33 34 34 34 34 34 33 34 34 33 33 34 34 33 33 33 32 32 31 31
34 34 35 35 34 34 34 34 34 34 34 34 34 34 34 34 34 34 35 35 35 35 35 35 35 35 35 35 34 34 33 33 32 32 31 31 31 31 31 30 30 30 29 29 29 29 29 29 29 29 28 28 27 27 26 25 24 23 23 22 22 21 21 20 20 20 20 20 20 20 20 20 20 20 21 21 22 23 23 25 27 29 32 33 34 34 34 34 34 34 34 34 34 34 34 34 34 34 34 34 34 34 34
37 37 37 36 36 36 36 35 35 35 35 35 35 35 35 35 35 35 35 36 36 36 36 36 36 36 36 36 35 34 33 33 33 32 32 32 32 31 31 31 30 30 30 30 30 30 30 30 30 30 29 29 28 27 27 26 25 24 24 23 23 22 22 22 21 21 21 21 21 21 21 21 21 21 21 21 22 23 24 25 27 30 33 33 33 33 34 34 34 34 34 34 34 34 34 35 35 35 35 35 35 35 35
39 39 39 38 38 38 38 37 37 37 37 37 36 36 36 36 36 36 36 36 36 37 37 37 37 37 37 36 35 34 34 34 34 34 33 32 32 31 31 31 31 31 31 31 31 31 31 31 30 30 30 29 29 28 27 27 26 25 25 24 24 23 23 23 22 22 22 22 22 22 22 22 22 22 22 22 22 23 24 26 27 29 33 34 34 34 34 34 34 34 34 34 34 34 34 34 35 35 35 35 35 35 35
40 40 40 40 40 40 40 40 39 39 39 39 39 39 39 39 38 38 38 38 38 38 38 38 38 38 38 37 36 35 35 35 35 35 35 34 33 32 32 32 32 31 31 31 31 31 31 31 31 30 30 29 29 28 28 27 27 26 25 25 25 24 24 24 24 24 24 24 24 24 24 24 24 23 23 23 23 24 25 26 27 29 32 34 34 34 34 34 34 34 34 34 34 34 34 34 34 34 35 35 35 35 35
41 41 41 42 42 42 42 42 42 41 41 41 41 41 41 41 41 41 41 41 41 41 41 40 40 40 39 39 38 38 38 38 37 37 37 36 35 34 34 33 33 33 33 33 33 32 32 31 31 31 30 30 29 29 29 28 28 27 27 27 26 26 26 26 26 26 26 26 26 26 26 26 26 26 26 26 26 26 27 28 29 30 31 33 35 36 36 36 36 35 35 35 35 35 34 34 34 34 34 35 35 35 35
41 42 42 42 42 42 43 43 43 43 43 43 43 43 43 43 43 43 43 43 43 43 43 42 42 41 41 41 41 41 41 40 40 40 40 38 37 36 35 35 35 35 35 34 34 34 33 33 32 32 31 31 30 30 30 29 29 29 28 28 27 27 27 27 27 27 26 26 26 27 27 27 27 27 27 27 27 27 27 28 29 30 31 32 34 36 37 37 38 38 38 37 37 36 36 36 36 35 35 35 35 35 35
41 41 41 41 42 42 42 42 43 43 43 43 43 43 43 43 43 43 42 42 42 42 42 42 41 41 41 41 41 41 41 40 40 39 39 37 36 35 35 35 35 35 35 35 34 34 33 32 32 31 31 30 30 29 29 28 28 27 27 26 26 25 25 24 24 23 23 23 23 23 23 23 23 23 23 23 23 24 24 25 25 26 27 28 30 32 33 35 37 38 39 39 39 39 38 38 38 37 37 37 36 36 36
39 39 38 38 38 38 39 39 40 40 40 40 40 41 41 41 41 40 40 40 40 40 40 39 39 39 39 40 40 40 39 38 37 36 34 33 32 32 31 32 32 32 31 31 30 30 29 28 28 27 27 26 26 25 25 24 23 23 23 22 22 21 21 20 20 20 19 19 19 19 19 19 19 19 19 20 20 20 20 21 21 21 22 23 24 26 27 29 31 33 35 36 37 38 39 39 39 39 39 38 38 38 38
35 35 34 35 35 35 35 35 35 35 36 36 36 36 37 37 37 37 37 38 38 38 38 38 38 38 38 38 38 37 36 34 32 31 29 29 28 27 27 27 27 26 25 24 24 23 22 21 21 20 20 19 19 19 18 18 18 18 18 18 18 18 18 18 18 18 18 18 18 18 18 19 19 19 20 20 20 20 21 21 21 21 21 21 22 23 24 25 26 27 29 30 32 34 35 36 37 38 39 39 39 39 39
31 31 32 32 32 33 33 33 33 33 33 34 34 34 34 35 35 35 35 36 37 37 37 38 38 37 36 36 34 33 31 30 29 28 27 26 25 24 23 23 22 21 20 20 19 18 17 17 17 16 16 16 15 15 15 15 15 15 15 15 15 16 16 16 17 17 18 18 18 18 19 19 19 19 20 20 21 21 21 22 22 22 22 23 23 23 23 24 24 25 26 26 27 29 30 32 33 35 36 37 38 39 39
28 28 29 29 29 29 29 30 30 31 32 32 32 32 32 32 32 33 33 34 35 35 35 36 36 35 33 32 32 30 29 29 28 26 25 24 23 21 20 20 19 19 18 18 17 17 17 17 16 16 16 16 16 15 15 15 15 14 14 14 14 14 14 14 15 15 15 15 16 16 16 17 17 18 18 19 19 20 20 21 21 22 22 23 23 23 23 23 24 24 25 25 25 26 27 28 29 30 32 34 35 36 37
24 24 24 24 24 25 25 26 27 27 29 29 29 29 28 28 29 29 30 32 32 32 32 33 33 32 31 30 29 28 26 25 24 23 22 21 20 19 18 18 18 18 18 18 18 18 17 17 17 17 16 16 16 16 15 15 14 14 14 14 13 13 13 13 13 13 13 13 14 13 14 14 14 14 15 15 16 17 18 18 19 19 20 21 21 22 22 23 23 23 24 24 24 25 25 26 27 28 29 30 31 33 34
20 19 20 20 21 21 22 22 23 23 24 25 26 26 26 26 26 26 27 28 28 29 28 29 29 28 28 26 25 24 22 21 20 20 19 19 18 18 18 18 18 18 18 18 17 17 17 17 16 16 16 15 15 14 14 14 13 13 13 13 13 13 13 13 13 13 13 13 13 13 13 13 13 13 13 14 14 14 15 15 16 16 17 18 19 19 20 21 21 22 22 23 23 23 24 24 25 25 27 27 29 30 32
16 16 17 17 18 18 19 19 19 20 21 21 22 23 23 23 24 24 25 25 25 25 24 24 24 23 23 22 21 20 19 18 18 18 18 18 18 18 18 18 18 17 17 17 17 16 16 15 15 15 14 14 13 13 13 12 12 12 12 12 12 12 13 13 13 13 13 13 13 13 13 13 13 13 13 14 14 14 14 14 15 15 16 16 17 17 18 18 19 20 20 21 21 21 22 22 22 23 24 25 25 27 28
15 15 16 16 16 17 17 17 18 18 18 19 19 20 20 21 21 22 22 22 22 22 21 20 20 20 19 19 18 18 18 18 18 18 18 18 18 18 18 17 17 17 16 16 15 15 14 14 14 13 13 13 12 12 12 12 12 12 12 12 12 12 12 12 12 12 12 12 12 13 13 13 13 13 14 14 14 14 14 15 15 15 15 16 16 17 17 18 18 18 19 19 19 20 20 20 21 21 21 22 23 24 25
15 15 16 16 16 16 16 16 17 17 17 17 18 18 19 19 19 19 20 19 19 19 18 18 18 18 18 18 18 18 18 18 18 18 18 18 18 17 17 16 16 16 15 15 14 14 14 13 13 12 12 12 12 12 11 11 11 11 11 12 11 11 11 11 11 11 12 12 12 12 12 13 13 13 13 13 14 14 14 14 15 15 15 16 16 17 17 18 18 19 19 19 20 20 20 20 20 20 20 21 21 21 22
16 16 16 16 16 16 16 16 16 16 16 17 17 17 17 17 18 18 18 18 17 17 17 17 17 17 17 18 18 18 18 18 18 18 18 18 17 17 16 16 15 15 14 14 13 13 13 12 12 12 12 12 12 12 12 12 12 12 11 11 11 11 11 11 12 12 12 12 12 12 12 12 12 13 13 13 13 13 13 14 14 14 15 15 16 17 17 18 19 19 20 20 20 21 21 21 21 21 21 21 21 21 22
17 16 16 16 16 15 15 15 15 16 16 16 16 16 16 16 16 16 16 16 16 17 17 17 17 17 17 17 18 18 18 18 18 18 17 17 17 16 16 15 15 14 14 13 13 13 12 12 12 12 12 12 12 12 12 12 12 12 12 11 11 11 11 11 12 12 12 13 13 13 13 13 13 13 13 13 13 13 13 14 14 14 15 15 15 16 17 17 18 19 20 20 21 21 21 21 22 22 22 22 22 22 22
17 17 16 16 16 15 15 15 15 15 15 15 15 15 15 15 15 16 16 16 16 16 17 17 17 17 17 17 17 17 17 17 18 18 18 17 16 16 16 15 15 14 14 13 13 13 13 12 12 12 13 13 13 13 13 13 13 12 12 12 12 11 12 12 12 12 13 13 13 13 13 13 13 13 13 14 14 14 14 15 15 15 16 16 16 17 17 17 18 18 19 19 20 20 21 21 21 22 22 22 22 23 23
17 17 16 16 16 16 15 15 15 15 15 15 15 15 15 15 15 15 15 16 16 16 17 17 17 18 18 18 17 17 17 18 18 18 18 18 17 16 16 15 15 14 14 14 14 14 13 13 13 14 14 14 14 14 14 14 13 13 13 12 12 12 12 12 12 12 13 13 14 14 14 15 15 15 15 15 16 16 16 16 16 17 17 18 18 18 18 18 18 19 19 19 19 20 20 20 21 21 21 22 22 22 22
18 17 17 16 16 16 15 15 15 15 15 14 14 14 14 15 15 15 15 15 16 16 17 17 17 18 18 18 17 17 17 18 18 18 18 18 18 18 18 17 16 15 15 15 15 15 14 14 15 15 15 15 15 15 15 15 14 14 13 13 13 12 12 12 12 13 13 13 14 14 15 15 16 17 17 18 18 18 18 18 19 19 19 19 19 20 20 20 20 20 20 20 20 20 20 20 20 20 21 21 21 21 22
18 18 17 17 16 16 15 15 15 15 14 14 14 14 14 14 15 15 15 15 16 16 17 17 17 17 18 18 17 17 17 18 18 18 18 18 19 20 20 20 18 18 17 16 16 16 16 16 16 17 17 17 17 16 16 15 15 15 14 14 14 13 13 13 13 13 14 14 14 14 15 16 17 18 19 20 21 21 21 21 21 21 21 21 21 21 21 21 20 20 20 20 20 20 20 20 20 20 20 20 20 21 21
19 18 18 17 17 16 16 16 15 15 15 14 14 14 14 14 15 15 15 16 16 16 17 17 17 17 17 17 17 17 17 17 18 18 18 19 19 20 21 21 21 21 21 19 17 16 16 17 18 18 18 18 18 17 17 16 16 16 16 16 16 16 15 15 15 15 15 15 16 16 17 17 18 19 20 21 22 23 24 24 24 23 23 23 22 22 22 21 21 21 21 21 21 21 20 20 20 20 20 20 20 20 20
19 19 18 18 17 16 16 16 15 15 15 14 14 14 14 14 15 15 15 16 16 16 16 17 17 17 17 17 17 17 17 17 17 18 19 19 20 20 21 22 23 23 23 22 21 19 17 17 18 18 18 18 17 17 18 18 18 18 19 19 19 19 19 19 19 19 18 18 18 19 19 19 20 20 21 22 22 23 24 24 25 25 25 24 24 23 23 23 22 22 22 21 21 21 21 21 21 20 20 20 20 20 20
20 19 19 18 18 17 17 16 16 15 15 15 15 15 15 15 15 15 15 16 16 16 16 17 17 17 17 17 17 17 17 17 17 18 18 20 20 21 21 22 23 24 24 23 21 20 17 18 19 19 18 18 18 19 19 20 20 21 22 22 22 22 22 22 22 22 22 21 21 21 21 21 21 21 21 22 22 23 23 24 24 25 25 25 25 25 24 24 24 23 23 22 22 22 22 21 21 21 21 21 21 21 21
21 20 20 19 19 18 17 16 16 16 16 15 15 15 15 15 15 16 16 16 17 17 17 17 17 17 17 17 17 17 17 17 17 17 18 19 20 21 22 22 22 22 22 21 20 19 19 19 20 20 18 19 20 20 21 21 22 23 23 24 24 25 25 25 25 25 24 23 23 22 21 21 21 21 21 21 21 22 22 23 23 24 25 25 25 26 25 25 25 24 24 23 23 23 23 22 22 22 22 22 22 22 22
21 21 20 20 19 18 18 17 17 16 16 16 16 16 16 16 16 16 17 17 17 17 17 17 17 18 18 18 18 18 17 17 17 17 18 18 19 20 21 22 23 24 24 22 21 20 20 22 22 22 20 20 21 22 21 22 23 24 25 25 26 26 26 26 26 26 25 24 23 23 22 21 21 20 20 20 21 21 21 22 22 23 23 24 24 25 25 25 25 25 25 24 24 24 23 23 23 23 23 22 22 22 22
22 22 21 21 20 19 18 18 17 17 16 16 16 16 16 17 17 17 17 17 18 18 18 18 18 18 19 19 19 19 18 18 17 17 18 18 18 18 19 20 21 23 24 24 23 22 22 23 24 23 21 19 20 22 23 23 24 25 26 26 26 26 26 26 26 25 25 24 24 23 22 22 21 21 20 20 20 20 20 21 22 22 23 23 24 24 25 25 25 25 25 25 25 24 24 23 23 23 23 23 23 23 23
23 22 22 21 20 19 18 18 17 17 17 17 17 17 17 17 18 18 18 18 18 19 19 19 19 19 20 20 20 20 19 19 18 17 17 17 17 16 16 16 17 18 19 20 21 23 23 24 25 25 22 21 20 21 24 24 25 25 26 26 26 26 26 26 25 25 25 25 24 23 23 22 22 22 21 21 20 20 20 20 21 21 22 22 23 23 24 24 24 25 25 25 25 25 24 24 24 23 23 23 23 23 23
23 23 22 21 20 20 19 18 18 18 18 18 18 18 18 19 19 19 20 20 20 20 20 20 21 20 20 20 20 20 19 18 17 16 16 16 15 15 15 15 15 15 16 16 17 19 22 24 25 24 24 23 22 21 22 24 26 26 26 26 26 26 26 26 26 25 25 25 24 24 23 23 22 22 21 21 20 20 20 19 19 20 20 21 21 22 23 23 24 24 24 25 25 25 25 24 24 24 24 24 24 23 24
24 23 22 22 21 20 19 19 19 19 19 19 20 20 20 21 21 21 21 21 22 21 21 21 20 20 19 19 18 18 17 16 16 15 15 15 15 15 15 15 15 15 15 15 15 16 17 20 21 23 25 25 25 23 22 22 24 25 26 26 26 26 26 26 26 26 25 25 24 24 24 23 22 22 21 21 20 20 19 19 18 18 18 19 19 20 21 21 22 23 23 24 24 24 24 24 24 24 24 24 24 24 24
24 23 22 22 21 20 20 20 20 20 21 21 22 22 22 22 23 23 22 22 21 21 20 19 19 18 17 17 16 16 15 15 15 14 15 15 16 16 16 16 16 16 16 16 16 16 17 17 19 21 24 26 27 27 25 23 23 24 25 26 26 26 26 26 26 25 25 24 24 24 23 23 22 21 21 20 20 19 19 18 17 17 17 17 17 18 18 19 20 21 21 22 22 23 23 24 24 24 24 24 24 24 24